Weather 🌤️

Recent data

Temperatures

Wind

Pressure

Humidity & Precipitation

Last data
obsTime qcStatus tempAvg heatindexAvg windspeedAvg windgustAvg winddirAvg pressureAvg humidityAvg precipRate precipTotal
2026-09-05 12:59:48 1 26.7 26.7 3.9 9 273 1002.71 47 0 0
2026-09-05 12:54:53 1 26.6 26.6 4.9 8.9 273 1002.71 47 0 0
2026-09-05 12:49:52 1 26.5 26.4 2.5 7.9 214 1002.88 47 0 0
2026-09-05 12:44:57 1 26.4 26.3 2.5 7.9 174 1002.88 47 0 0
2026-09-05 12:39:57 1 26.4 26.3 3.3 7.9 235 1002.88 47 0 0
2026-09-05 12:34:49 1 26.5 26.4 4.2 7.9 239 1002.88 47 0 0
2026-09-05 12:29:49 1 26.5 26.4 4.7 7.9 245 1002.88 47 0 0
2026-09-05 12:24:50 1 26.4 26.3 3.6 7.9 221 1002.88 47 0 0
2026-09-05 12:19:49 1 26.3 26.2 2.7 7.9 229 1003.22 47 0 0
2026-09-05 12:14:44 1 26.2 26.1 3.7 6.5 202 1003.22 47 0 0
2026-09-05 12:09:49 1 26.1 26 1.4 6.1 199 1003.22 47.2 0 0
2026-09-05 12:04:49 1 26 25.9 2.9 6.1 220 1003.22 47.4 0 0

Hourly data

Temperatures

Wind

Pressure

Humidity & Precipitation

Last data
obsTime qcStatus tempAvg heatindexAvg windspeedAvg windgustAvg winddirAvg pressureAvg humidityAvg precipRate precipTotal
2026-09-05 12:59:48 1 26.4 26.3 3.4 7.7 230 1003.05 47 0 0
2026-09-05 11:59:57 1 25.2 25 2.2 6.1 211 1003.22 48.3 0 0
2026-09-05 10:59:57 1 22.6 22.2 1.6 4.5 184 1003.05 51.2 0 0
2026-09-05 09:59:50 1 21 20.8 0.5 2.9 164 1002.71 52.7 0 0
2026-09-05 08:59:49 0 20.5 20.5 0.3 2.1 167 1002.2 52.1 0 0
2026-09-05 07:59:48 0 20.4 20.4 0.2 1.7 164 1001.69 51 0 0
2026-09-05 06:59:51 0 21.2 20.8 0.1 1.9 148 1001.36 48.9 0 0
2026-09-05 05:59:50 0 22.1 21.6 0 1.9 186 1001.36 46.4 0 0
2026-09-05 04:59:49 0 22.9 22.4 0.8 4.5 230 1000.68 44.4 0 0
2026-09-05 03:59:49 0 23.5 23 1.1 5.5 222 1000.34 43.2 0 0
2026-09-05 02:59:57 0 24.2 23.8 0.9 3.8 217 1000.85 42.3 0 0
2026-09-05 01:59:58 0 25.1 24.7 0.6 3.8 225 1000.85 40.8 0 0
2026-09-05 00:59:52 0 26 25.6 0.8 4.8 219 1000.17 38.7 0 0
2026-09-04 23:59:50 0 26.9 26.5 2.4 7.6 223 1000 36.7 0 0
2026-09-04 22:59:51 0 28.2 27.5 2.6 11.4 225 999.49 34.9 0 0
2026-09-04 21:59:51 0 29.2 28.3 3.1 8 223 998.65 33.8 0 0
2026-09-04 20:59:51 1 30.4 29.4 1.7 13.2 226 997.8 32.3 0 0
2026-09-04 19:59:50 1 31.8 30.9 8.4 18.9 231 996.95 31.9 0 0
2026-09-04 18:59:54 1 32.6 32.1 10.7 20.1 236 996.62 33.8 0 0
2026-09-04 17:59:51 1 32.5 32.1 9 20.7 236 996.44 35 0 0
2026-09-04 16:59:51 0 31.1 30.7 6.7 15.3 226 996.62 36.1 0 0
2026-09-04 15:59:50 0 30.8 30.7 2.6 6.8 206 997.46 39.6 0 0
2026-09-04 14:59:51 1 30 29.9 2.6 7.4 200 997.97 41 0 0
2026-09-04 13:59:51 1 28.7 28.6 3.2 6.7 195 998.48 43.6 0 0